Weather History for K20V - July, 2013

Change the Weather History Date:

Saturday, July 13, 2013

  Actual Average (KEGE) Record (KEGE)
Temperature  
Mean Temperature 68 °F -  
Max Temperature 84 °F 85 °F 97 °F (1971)
Min Temperature 53 °F 47 °F 33 °F (1952)
Cooling Degree Days 4    
Growing Degree Days 18 (Base 50)    
Moisture  
Dew Point 49 °F    
Average Humidity 63    
Maximum Humidity 94    
Minimum Humidity 20    
Precipitation  
Precipitation 0.02 in - - ()
Sea Level Pressure  
Sea Level Pressure 30.32 in    
Wind  
Wind Speed 3 mph (NNW)    
Max Wind Speed 24 mph    
Max Gust Speed 31 mph    
Visibility 10 miles    
Events Rain , Thunderstorm    
Averages and records for this station are not official NWS values.
T = Trace of Precipitation, MM = Missing Value Source: NWS Daily Summary

Daily Weather History Graph

Daily Weather History Graph

Search for Another Location

Airport or City:

Trip Planner

Search our weather history database for the weather conditions in past years. The results will help you decide how hot, cold, wet, or windy it might be!

Date:

Astronomy

Jul. 13, 2013 Rise Set
Actual Time 5:47 AM MDT 8:34 PM MDT
Civil Twilight 5:15 AM MDT 9:06 PM MDT
Nautical Twilight 4:35 AM MDT 9:46 PM MDT
Astronomical Twilight 3:49 AM MDT 10:32 PM MDT
Moon 11:06 AM MDT (7/13) 11:16 PM MDT (7/13)
Length of Visible Light 15h 50m
Length of Day
14h 46m
Waxing Crescent, 26% of the Moon is Illuminated
Jul 13
Waxing Crescent
Jul 15
First Quarter
Jul 22
Full
Jul 29
Last Quarter
Aug 6
New

Hourly Weather History & Observations

Time (MDT) Temp. Dew Point Humidity Pressure Visibility Wind Dir Wind Speed Gust Speed Precip Events Conditions
12:15 AM 53.6 °F 50.0 °F 88% 30.33 in 10.0 mi Calm Calm - N/A   Clear
12:36 AM 53.6 °F 50.0 °F 88% 30.33 in 10.0 mi Calm Calm - N/A   Clear
12:56 AM 53.6 °F 51.8 °F 94% 30.33 in 10.0 mi Calm Calm - N/A   Clear
1:16 AM 53.6 °F 51.8 °F 94% 30.34 in 10.0 mi Calm Calm - N/A   Clear
1:36 AM 53.6 °F 50.0 °F 88% 30.34 in 10.0 mi Calm Calm - N/A   Clear
1:56 AM 53.6 °F 51.8 °F 94% 30.34 in 10.0 mi Calm Calm - N/A   Clear
2:16 AM 53.6 °F 50.0 °F 88% 30.34 in 10.0 mi Calm Calm - N/A   Clear
2:36 AM 53.6 °F 51.8 °F 94% 30.34 in 10.0 mi Calm Calm - N/A   Clear
2:56 AM 53.6 °F 51.8 °F 94% 30.34 in 10.0 mi Calm Calm - N/A   Mostly Cloudy
3:16 AM 53.6 °F 51.8 °F 94% 30.33 in 10.0 mi ENE 3.5 mph - N/A   Overcast
3:36 AM 53.6 °F 51.8 °F 94% 30.33 in 10.0 mi Calm Calm - N/A   Overcast
3:56 AM 53.6 °F 50.0 °F 88% 30.33 in 10.0 mi Calm Calm - N/A   Overcast
4:16 AM 53.6 °F 50.0 °F 88% 30.34 in 10.0 mi Calm Calm - N/A   Overcast
4:36 AM 53.6 °F 51.8 °F 94% 30.33 in 10.0 mi Calm Calm - N/A   Mostly Cloudy
4:56 AM 53.6 °F 51.8 °F 94% 30.33 in 10.0 mi Calm Calm - N/A   Scattered Clouds
5:16 AM 53.6 °F 50.0 °F 88% 30.33 in 10.0 mi Calm Calm - N/A   Mostly Cloudy
5:36 AM 53.6 °F 50.0 °F 88% 30.34 in 10.0 mi Calm Calm - N/A   Overcast
5:55 AM 53.6 °F 50.0 °F 88% 30.34 in 10.0 mi Calm Calm - N/A   Overcast
6:16 AM 53.6 °F 51.8 °F 94% 30.34 in 10.0 mi Calm Calm - N/A   Scattered Clouds
6:36 AM 53.6 °F 51.8 °F 94% 30.35 in 10.0 mi Calm Calm - N/A   Mostly Cloudy
6:56 AM 53.6 °F 50.0 °F 88% 30.35 in 10.0 mi Calm Calm - N/A   Overcast
7:16 AM 53.6 °F 50.0 °F 88% 30.35 in 10.0 mi Calm Calm - N/A Rain Light Rain
7:36 AM 55.4 °F 51.8 °F 88% 30.36 in 10.0 mi Calm Calm - N/A   Overcast
7:56 AM 55.4 °F 51.8 °F 88% 30.37 in 10.0 mi Calm Calm - N/A   Overcast
8:16 AM 55.4 °F 51.8 °F 88% 30.37 in 10.0 mi Calm Calm - N/A   Scattered Clouds
8:36 AM 59.0 °F 53.6 °F 82% 30.37 in 10.0 mi Calm Calm - N/A   Scattered Clouds
8:56 AM 60.8 °F 51.8 °F 72% 30.37 in 10.0 mi Calm Calm - N/A   Mostly Cloudy
9:16 AM 60.8 °F 51.8 °F 72% 30.37 in 10.0 mi Calm Calm - N/A   Scattered Clouds
9:36 AM 62.6 °F 51.8 °F 68% 30.36 in 10.0 mi East 3.5 mph - N/A   Scattered Clouds
9:56 AM 66.2 °F 53.6 °F 64% 30.36 in 10.0 mi Calm Calm - N/A   Clear
10:16 AM 69.8 °F 53.6 °F 56% 30.35 in 10.0 mi ENE 3.5 mph - N/A   Clear
10:36 AM 69.8 °F 51.8 °F 53% 30.34 in 10.0 mi ENE 3.5 mph - N/A   Clear
10:56 AM 69.8 °F 51.8 °F 53% 30.34 in 10.0 mi NE 3.5 mph - N/A   Clear
11:16 AM 73.4 °F 50.0 °F 44% 30.33 in 10.0 mi Calm Calm - N/A   Clear
11:36 AM 73.4 °F 50.0 °F 44% 30.32 in 10.0 mi Calm Calm - N/A   Clear
11:56 AM 77.0 °F 46.4 °F 34% 30.32 in 10.0 mi NW 3.5 mph - N/A   Clear
12:16 PM 80.6 °F 41.0 °F 24% 30.31 in 10.0 mi SSW 10.4 mph 17.3 mph N/A   Clear
12:36 PM 80.6 °F 42.8 °F 26% 30.31 in 10.0 mi WSW 10.4 mph - N/A   Scattered Clouds
12:56 PM 82.4 °F 42.8 °F 25% 30.31 in 10.0 mi WSW 12.7 mph 20.7 mph N/A   Scattered Clouds
1:15 PM 82.4 °F 41.0 °F 23% 30.30 in 10.0 mi West 12.7 mph 18.4 mph N/A   Clear
1:36 PM 80.6 °F 44.6 °F 28% 30.29 in 10.0 mi WNW 5.8 mph - N/A   Clear
1:56 PM 78.8 °F 44.6 °F 30% 30.28 in 10.0 mi NW 9.2 mph - N/A   Scattered Clouds
2:16 PM 80.6 °F 44.6 °F 28% 30.28 in 10.0 mi NNW 9.2 mph - N/A   Scattered Clouds
2:36 PM 80.6 °F 44.6 °F 28% 30.27 in 10.0 mi NNE 10.4 mph - N/A   Scattered Clouds
2:56 PM 82.4 °F 42.8 °F 25% 30.26 in 10.0 mi Calm Calm - N/A   Scattered Clouds
3:16 PM 82.4 °F 42.8 °F 25% 30.26 in 10.0 mi NW 6.9 mph - N/A   Scattered Clouds
3:36 PM 82.4 °F 41.0 °F 23% 30.26 in 10.0 mi ENE 4.6 mph - N/A   Scattered Clouds
3:56 PM 84.2 °F 41.0 °F 22% 30.25 in 10.0 mi West 9.2 mph - N/A   Scattered Clouds
4:16 PM 82.4 °F 41.0 °F 23% 30.24 in 10.0 mi NNE 6.9 mph - N/A   Scattered Clouds
4:36 PM 80.6 °F 37.4 °F 21% 30.24 in 10.0 mi SSE 4.6 mph - N/A Thunderstorm Mostly Cloudy
4:56 PM 82.4 °F 37.4 °F 20% 30.23 in 10.0 mi Calm Calm - N/A   Mostly Cloudy
5:16 PM 80.6 °F 41.0 °F 24% 30.24 in 10.0 mi ENE 4.6 mph - N/A Thunderstorm Mostly Cloudy
5:36 PM 73.4 °F 48.2 °F 41% 30.27 in 10.0 mi North 24.2 mph 31.1 mph N/A   Overcast
5:56 PM 69.8 °F 50.0 °F 49% 30.28 in 10.0 mi North 17.3 mph 26.5 mph N/A Thunderstorm Thunderstorm
6:16 PM 69.8 °F 46.4 °F 43% 30.27 in 10.0 mi North 17.3 mph 23.0 mph N/A   Clear
6:35 PM 69.8 °F 46.4 °F 43% 30.28 in 10.0 mi North 6.9 mph - N/A   Clear
6:55 PM 71.6 °F 46.4 °F 41% 30.29 in 10.0 mi North 13.8 mph 19.6 mph N/A   Scattered Clouds
7:16 PM 71.6 °F 44.6 °F 38% 30.30 in 10.0 mi North 8.1 mph 17.3 mph N/A   Mostly Cloudy
7:36 PM 66.2 °F 53.6 °F 64% 30.30 in 7.0 mi East 3.5 mph - 0.02 in Rain , Thunderstorm Light Thunderstorms and Rain
7:56 PM 66.2 °F 55.4 °F 68% 30.31 in 10.0 mi South 5.8 mph - 0.02 in   Mostly Cloudy
8:16 PM 66.2 °F 51.8 °F 60% 30.32 in 10.0 mi SSW 6.9 mph - N/A Thunderstorm Mostly Cloudy
8:35 PM 66.2 °F 53.6 °F 64% 30.32 in 10.0 mi South 5.8 mph - N/A   Mostly Cloudy
8:56 PM 66.2 °F 51.8 °F 60% 30.32 in 10.0 mi Calm Calm - N/A   Mostly Cloudy
9:16 PM 66.2 °F 53.6 °F 64% 30.34 in 10.0 mi SW 3.5 mph - N/A   Overcast
9:36 PM 62.6 °F 51.8 °F 68% 30.34 in 10.0 mi South 11.5 mph - N/A   Overcast
9:56 PM 62.6 °F 51.8 °F 68% 30.36 in 10.0 mi South 6.9 mph - N/A   Scattered Clouds
10:15 PM 62.6 °F 51.8 °F 68% 30.35 in 10.0 mi South 9.2 mph - N/A   Scattered Clouds
10:36 PM 62.6 °F 50.0 °F 63% 30.36 in 10.0 mi Calm Calm - N/A   Scattered Clouds
10:56 PM 59.0 °F 51.8 °F 77% 30.36 in 10.0 mi Calm Calm - N/A   Clear
11:16 PM 59.0 °F 51.8 °F 77% 30.37 in 10.0 mi SSW 10.4 mph - N/A   Clear
11:36 PM 59.0 °F 51.8 °F 77% 30.37 in 10.0 mi SSW 4.6 mph - N/A   Scattered Clouds
11:56 PM 59.0 °F 53.6 °F 82% 30.37 in 10.0 mi SE 4.6 mph - N/A   Mostly Cloudy